TimeEDT,TemperatureF,Dew PointF,Humidity,Sea Level PressureIn,VisibilityMPH,Wind Direction,Wind SpeedMPH,Gust SpeedMPH,PrecipitationIn,Events,Conditions,WindDirDegrees,DateUTC
12:58 AM,81.3,76.1,84,30.05,10.0,East,6.9,-,N/A,,Mostly Cloudy,90,2013-08-21 04:58:00
1:47 AM,82.4,75.2,79,30.04,10.0,ENE,10.4,-,N/A,Thunderstorm,Thunderstorm,60,2013-08-21 05:47:00
1:52 AM,82.4,77.0,84,30.04,9.0,ENE,11.5,-,N/A,Rain-Thunderstorm,Light Thunderstorms and Rain,60,2013-08-21 05:52:00
1:58 AM,81.7,77.4,87,30.05,7.0,ENE,12.7,19.6,0.02,Rain-Thunderstorm,Heavy Thunderstorms and Rain,60,2013-08-21 05:58:00
2:08 AM,78.8,71.6,78,30.04,9.0,ENE,11.5,23.0,N/A,Rain-Thunderstorm,Light Thunderstorms and Rain,60,2013-08-21 06:08:00
2:11 AM,78.8,73.4,83,30.04,10.0,NE,8.1,-,N/A,Rain,Light Rain,50,2013-08-21 06:11:00
2:13 AM,78.8,73.4,83,30.04,10.0,NE,8.1,-,N/A,,Partly Cloudy,50,2013-08-21 06:13:00
2:58 AM,77.9,75.2,91,30.03,10.0,NE,5.8,-,0.02,,Clear,50,2013-08-21 06:58:00
3:58 AM,81.5,76.3,84,30.02,10.0,East,9.2,-,N/A,,Partly Cloudy,90,2013-08-21 07:58:00
4:58 AM,81.7,75.0,80,30.02,10.0,East,5.8,-,N/A,,Clear,100,2013-08-21 08:58:00
5:58 AM,81.1,76.3,85,30.03,10.0,East,5.8,-,N/A,,Clear,90,2013-08-21 09:58:00
6:58 AM,81.3,74.8,81,30.04,10.0,East,5.8,-,N/A,,Clear,80,2013-08-21 10:58:00
7:58 AM,81.5,76.5,85,30.04,10.0,ENE,4.6,-,N/A,,Partly Cloudy,60,2013-08-21 11:58:00
8:58 AM,83.1,76.8,81,30.06,10.0,ENE,10.4,-,N/A,,Scattered Clouds,60,2013-08-21 12:58:00
9:58 AM,85.8,77.2,75,30.07,10.0,East,11.5,-,N/A,,Partly Cloudy,80,2013-08-21 13:58:00
10:58 AM,86.5,77.9,75,30.07,10.0,East,12.7,-,N/A,,Clear,100,2013-08-21 14:58:00
11:05 AM,86.0,78.8,79,30.07,10.0,East,11.5,-,N/A,,Light Drizzle,90,2013-08-21 15:05:00
11:19 AM,86.0,77.0,74,30.06,10.0,East,15.0,20.7,N/A,,Partly Cloudy,90,2013-08-21 15:19:00
11:58 AM,87.4,76.5,70,30.08,10.0,East,16.1,-,0.00,,Clear,100,2013-08-21 15:58:00
12:58 PM,87.8,77.0,70,30.07,10.0,East,12.7,-,N/A,,Partly Cloudy,100,2013-08-21 16:58:00
1:58 PM,87.8,77.5,71,30.06,10.0,East,15.0,-,N/A,,Partly Cloudy,80,2013-08-21 17:58:00
2:58 PM,88.2,76.8,69,30.04,10.0,East,12.7,21.9,N/A,,Partly Cloudy,90,2013-08-21 18:58:00
3:58 PM,87.8,77.4,71,30.02,10.0,East,15.0,21.9,N/A,,Partly Cloudy,100,2013-08-21 19:58:00
4:58 PM,87.6,77.5,72,30.01,10.0,ESE,15.0,23.0,N/A,,Partly Cloudy,120,2013-08-21 20:58:00
5:58 PM,86.9,76.5,71,30.01,10.0,ESE,16.1,23.0,N/A,,Clear,110,2013-08-21 21:58:00
6:58 PM,85.3,77.0,76,30.00,10.0,East,13.8,19.6,N/A,,Clear,100,2013-08-21 22:58:00
7:58 PM,84.4,77.2,79,30.02,10.0,East,11.5,-,N/A,,Partly Cloudy,100,2013-08-21 23:58:00
8:58 PM,84.0,77.5,81,30.05,10.0,East,11.5,-,N/A,,Partly Cloudy,100,2013-08-22 00:58:00
9:19 PM,84.2,77.0,79,30.04,10.0,SE,12.7,-,N/A,Rain,Light Rain,130,2013-08-22 01:19:00
9:28 PM,80.6,77.0,89,30.04,10.0,SE,8.1,-,N/A,Rain-Thunderstorm,Light Thunderstorms and Rain,130,2013-08-22 01:28:00
9:31 PM,80.6,77.0,89,30.04,10.0,ESE,5.8,-,N/A,Thunderstorm,Thunderstorm,120,2013-08-22 01:31:00
9:47 PM,80.6,77.0,89,30.04,6.0,East,5.8,-,N/A,Thunderstorm,Haze,90,2013-08-22 01:47:00
9:58 PM,82.6,77.0,83,30.05,10.0,East,9.2,-,0.00,Thunderstorm,Partly Cloudy,100,2013-08-22 01:58:00
10:58 PM,84.0,77.0,79,30.06,10.0,ESE,8.1,-,N/A,Thunderstorm,Clear,110,2013-08-22 02:58:00
11:03 PM,84.2,77.0,79,30.05,10.0,East,8.1,-,N/A,Thunderstorm,Thunderstorm,100,2013-08-22 03:03:00
11:31 PM,84.2,77.0,79,30.06,10.0,ESE,10.4,-,N/A,Thunderstorm,Partly Cloudy,110,2013-08-22 03:31:00
11:58 PM,83.7,77.7,82,30.07,10.0,East,11.5,-,N/A,,Clear,90,2013-08-22 03:58:00